This is the latest recevied weather packets stored in our database for station/object KD8OUK. If no packets are shown the sender has not sent any weather packets the latest 10 day(s).
| Time | Temp. | Humidity | Pressure | Rain* | Wind** | Luminosity | Snow |
|---|---|---|---|---|---|---|---|
| 1777980919 | 12.78° C | 99% | 1007.1 hPa | 0 mm | - | - | - |
| 1777980631 | 12.78° C | 99% | 1007.1 hPa | 0 mm | - | - | - |
| 1777980322 | 12.78° C | 99% | 1006.9 hPa | 0 mm | - | - | - |
| 1777980032 | 12.22° C | 99% | 1006.9 hPa | 0 mm | - | - | - |
| 1777979724 | 12.22° C | 99% | 1006.6 hPa | 0 mm | - | - | - |
| 1777979416 | 12.22° C | 99% | 1006.2 hPa | 0 mm | - | - | - |
| 1777979126 | 12.22° C | 99% | 1006.2 hPa | 0 mm | - | - | - |
| 1777978819 | 12.22° C | 99% | 1005.7 hPa | 0 mm | - | - | - |
| 1777978529 | 12.22° C | 99% | 1005.5 hPa | 0 mm | - | - | - |
| 1777978221 | 12.22° C | 99% | 1005.8 hPa | 0 mm | - | - | - |
| 1777977932 | 12.22° C | 99% | 1006.2 hPa | 0 mm | - | - | - |
| 1777977623 | 12.22° C | 99% | 1006.2 hPa | 0.25 mm | - | - | - |
| 1777977315 | 12.22° C | 99% | 1006.2 hPa | 0.51 mm | - | - | - |
| 1777977026 | 12.22° C | 99% | 1006.2 hPa | 0.51 mm | - | - | - |
| 1777976718 | 12.22° C | 99% | 1006.4 hPa | 0.76 mm | - | - | - |
| 1777976428 | 12.22° C | 99% | 1006.5 hPa | 1.02 mm | - | - | - |
| 1777976120 | 12.22° C | 99% | 1006.6 hPa | 1.52 mm | - | - | - |
| 1777975830 | 12.22° C | 99% | 1006.7 hPa | 2.03 mm | - | - | - |
| 1777975522 | 12.22° C | 99% | 1006.7 hPa | 2.79 mm | - | - | - |
| 1777975232 | 12.22° C | 99% | 1006.8 hPa | 3.05 mm | - | - | - |
| 1777974924 | 12.22° C | 99% | 1006.9 hPa | 3.05 mm | - | - | - |
| 1777974616 | 12.22° C | 99% | 1007.1 hPa | 3.05 mm | - | - | - |
| 1777974327 | 12.78° C | 99% | 1007.4 hPa | 3.05 mm | - | - | - |
| 1777974019 | 12.78° C | 99% | 1007.4 hPa | 2.79 mm | - | - | - |
| 1777973729 | 12.78° C | 99% | 1007.6 hPa | 2.54 mm | - | - | - |
* Rain latest hour (hover to see other rain measurements)
** Current wind speed in m/s (hover to see current wind gust speed)